Regional Weather Roundup
Issued by NWS Sioux Falls, SD

Home | Current Version | Previous Version | Text Only | Print | Product List | Glossary Off
Versions: 1 2 3 4 5 6 7 8 9 10 11 12 13 14 15 16 17 18 19 20 21 22 23 24 25 26 27 28 29 30 31 32 33 34 35 36 37 38 39 40 41 42 43 44 45 46 47 48 49 50

000
ASUS43 KFSD 261410
RWRFSD

WEATHER ROUNDUP FOR SE SOUTH DAKOTA/SW MINNESOTA/NW IOWA
NATIONAL WEATHER SERVICE SIOUX FALLS SD
900 AM CDT SUN MAR 26 2017

NOTE: "FAIR" INDICATES FEW OR NO CLOUDS BELOW 12,000 FEET WITH NO
SIGNIFICANT WEATHER AND OR OBSTRUCTIONS TO VISIBILITY.


SDZ038>040-050-052>070-261500-
SOUTHEAST SOUTH DAKOTA

CITY           SKY/WX    TMP DP  RH WIND       PRES   REMARKS
BROOKINGS      CLOUDY    36  35  96 NE5       29.93R FOG
CHAMBERLAIN    CLOUDY    41  40  97 E5        29.92R
HURON          CLOUDY    39  38  96 NE6       29.94S
MADISON        CLOUDY    36  36 100 NE7       29.92S
MITCHELL       CLOUDY    39  38  96 E6        29.94R FOG
SIOUX FALLS    DRIZZLE   39  37  92 NE6       29.92S FOG
WINNER         CLOUDY    40  39  97 SE5       29.90S FOG
YANKTON        CLOUDY    37  36  93 NE5       29.92R
$$

MNZ071-072-080-081-089-090-097-098-261500-
SOUTHWEST MINNESOTA

CITY           SKY/WX    TMP DP  RH WIND       PRES   REMARKS
FAIRMONT       CLOUDY    36  36 100 N8        29.92S FOG
JACKSON        LGT RAIN  36  36 100 N9        29.92S
LUVERNE        CLOUDY    36  34  93 N5        29.92S FOG
MARSHALL       MIX PCPN  36  36 100 NE6       29.95S FOG
MONTEVIDEO     CLOUDY    36  36 100 E6        29.98S FOG
PIPESTONE      CLOUDY    36  34  93 E8        29.91S FOG
REDWOOD FALLS  CLOUDY    37  34  89 N6        29.95S FOG
TRACY          FOG       37  37 100 NE7       29.94S VSB 1/4
WINDOM         LGT RAIN  36  36 100 NE8       29.93S
WORTHINGTON    CLOUDY    36  36 100 NE9       29.92S FOG
$$

IAZ001>003-012>014-020>022-031-032-NEZ013-014-SDZ071-261500-
NORTHWEST IOWA

CITY           SKY/WX    TMP DP  RH WIND       PRES   REMARKS
CHEROKEE       CLOUDY    37  37 100 NE5       29.91S
ESTHERVILLE    CLOUDY    36  36 100 N8        29.91S
LE MARS        CLOUDY    39  37  93 N6        29.92S
ORANGE CITY    CLOUDY    37  37 100 NE7       29.91S
SHELDON        CLOUDY    37  37 100 NE8       29.90R
SIOUX CITY     CLOUDY    40  38  93 NE6       29.92R
SPENCER        LGT RAIN  38  37  97 NE10      29.91S
STORM LAKE     FOG       37  36  93 N10       29.89S VSB 1/2
$$

ABBREVIATIONS USED IN REMARKS
   TC - TEMPERATURE IN CELSIUS
  WCI - WIND CHILL INDEX
   HX - HEAT INDEX
  VSB - VISIBILITY





USA.gov is the U.S. government's official web portal to all federal, state and local government web resources and services.